Location: Unspecified
(0.0000°N, 0.0000°E)
Time: 06:04:07
(UTC+00:00)

Fuji - Pass Details

Date: 06 December 2022
Orbit: 1479 x 1496 km, 50.0° (Epoch: 28 January)

Event Time Altitude Azimuth Distance (km) Brightness Sun altitude
Rises 02:57:17 0° 180° (S) 4,625 ? -39.4°
Reaches altitude 10° 03:03:37 10° 148° (SSE) 3,641 ? -38.0°
Maximum altitude 03:06:08 11° 132° (SE) 3,536 ? -37.5°
Drops below altitude 10° 03:08:38 10° 115° (ESE) 3,636 ? -36.9°
Sets 03:14:51 0° 84° (E) 4,610 ? -35.6°
